Lechfeld Airport ETSL

Flugplatz Daten

Name: Lechfeld Airport

Ident: ETSL

Lat: 48,1855011

Long: 10,86120033

Platzhöhe: 1822 ft

IataCode:

City:

Metar

2022/08/14 05:20
ETSL 140520Z AUTO 14002KT 6000 // ////// 12/10 Q1012 ///

Taf

2016/01/19 15:42
TAF ETSL 191727Z 1915/2003 VRB03KT 9999 NSW SCT020 BKN040
TEMPO 1915/2003 VRB03KT 4000 -SN BKN010 BKN030 PROB30 2001/2003 VRB02KT 0800 FZFG VV001 BY ETGL
Gewünschte Webcam nicht vorhanden? Dann fügen Sie eine hinzu. Sie wird dann so schnell wie möglich freigeschaltet
Url: Title: